Tracking 19709 objects as of 20-Jun-2019
HD Live streaming from Space Station
objects crossing your sky now

GORIZONT 30

Track GORIZONT 30 now!
GORIZONT 30 is classified as:


NORAD ID: 23108
Int'l Code: 1994-030A
Perigee: 35,769.5 km
Apogee: 35,794.3 km
Inclination: 14.8 °
Period: 1,435.5 minutes
Semi major axis: 42152 km
RCS: 12.5892 m2 (large)
Launch date: May 20, 1994
Source: Commonwealth of Independent States (former USSR) (CIS)
Launch site: TYURATAM MISSILE AND SPACE COMPLEX (TTMTR)
aabbcc
Your satellite tracking list
Your tracking list is empty




NASA's NSSDC Master Catalog

Two Line Element Set (TLE):
1 23108U 94030A   19170.88485309 -.00000253  00000-0  00000+0 0  9993
2 23108  14.8380   9.0972 0002938 303.0262 241.9947  1.00314075 91877
Source of the keplerian elements: AFSPC